DW2217 Weather Reports


time (UTC)temp
C
wind
direction
speed
KPH
gust
KPH
rain 1hr
cm
rain 24hr
cm
rain mn
cm
humidity
%
barometer
mb
20260902014944 17 96 0.0 0.0 0.00 0.00 0.00 93 1019.8
20260902014441 17 96 0.0 0.0 0.00 0.00 0.00 93 1019.8
20260902013940 17 96 0.0 3.2 0.00 0.00 0.00 93 1019.9
20260902013436 17 96 1.6 3.2 0.00 0.00 0.00 92 1019.5
20260902012931 17 96 1.6 3.2 0.00 0.00 0.00 92 1019.5
20260902012426 17 96 1.6 3.2 0.00 0.00 0.00 92 1019.8
20260902011922 17 96 0.0 0.0 0.00 0.00 0.00 92 1019.9
20260902011417 17 96 0.0 0.0 0.00 0.00 0.00 92 1019.7
20260902010916 17 96 1.6 3.2 0.00 0.00 0.00 92 1019.8
20260902010411 17 96 0.0 0.0 0.00 0.00 0.00 92 1019.9
20260902005910 17 96 0.0 3.2 0.00 0.00 0.00 92 1020.0
20260902005404 17 96 0.0 3.2 0.00 0.00 0.00 92 1019.7
20260902004900 17 96 0.0 3.2 0.00 0.00 0.00 91 1019.7
20260902004400 17 96 0.0 3.2 0.00 0.00 0.00 91 1019.6
20260902003855 17 96 1.6 3.2 0.00 0.00 0.00 92 1019.5
20260902003350 17 96 1.6 3.2 0.00 0.00 0.00 92 1019.5
20260902002846 17 96 1.6 3.2 0.00 0.00 0.00 92 1019.4
20260902002345 17 96 0.0 3.2 0.00 0.00 0.00 92 1019.4
20260902001840 17 96 3.2 3.2 0.00 0.00 0.00 91 1019.3
20260902001336 17 96 0.0 3.2 0.00 0.00 0.00 91 1019.2
20260902000830 17 96 0.0 3.2 0.00 0.00 0.00 91 1019.3
20260902000330 18 96 0.0 3.2 0.00 0.00 0.00 91 1019.2
20260901235825 18 96 0.0 3.2 0.00 0.00 0.00 90 1019.1
20260901235325 18 96 1.6 3.2 0.00 0.00 0.00 90 1019.1
20260901234820 18 96 0.0 3.2 0.00 0.00 0.00 90 1018.8
20260901234314 18 96 0.0 3.2 0.00 0.00 0.00 90 1019.0
20260901233810 18 96 0.0 3.2 0.00 0.00 0.00 90 1019.0
20260901233305 18 96 0.0 3.2 0.00 0.00 0.00 90 1018.9
20260901232801 18 96 1.6 3.2 0.00 0.00 0.00 90 1019.0
20260901232255 18 96 3.2 3.2 0.00 0.00 0.00 89 1019.2
20260901231752 18 99 3.2 3.2 0.00 0.00 0.00 89 1019.1
20260901231248 18 99 3.2 3.2 0.00 0.00 0.00 88 1019.2
20260901230744 18 99 3.2 3.2 0.00 0.00 0.00 88 1019.0
20260901230243 18 99 1.6 3.2 0.00 0.00 0.00 87 1019.0
20260901225738 18 99 3.2 3.2 0.00 0.00 0.00 86 1019.0
20260901225233 18 99 3.2 3.2 0.00 0.00 0.00 86 1018.8
20260901224729 19 99 3.2 3.2 0.00 0.00 0.00 86 1018.7
20260901224225 19 99 3.2 3.2 0.00 0.00 0.00 85 1018.5
20260901223721 19 99 3.2 4.8 0.00 0.00 0.00 84 1018.6
20260901223215 19 100 1.6 3.2 0.00 0.00 0.00 84 1018.6
20260901222711 20 100 3.2 3.2 0.00 0.00 0.00 83 1018.7
20260901222208 20 100 1.6 3.2 0.00 0.00 0.00 83 1018.6
20260901221703 20 100 3.2 3.2 0.00 0.00 0.00 82 1018.7
20260901221159 20 100 1.6 3.2 0.00 0.00 0.00 82 1018.7
20260901220658 20 100 1.6 3.2 0.00 0.00 0.00 82 1018.5
20260901220157 20 100 1.6 3.2 0.00 0.00 0.00 82 1018.5
20260901215655 20 105 0.0 3.2 0.00 0.00 0.00 82 1018.5
20260901215145 20 107 3.2 3.2 0.00 0.00 0.00 82 1018.3
20260901214642 20 108 0.0 3.2 0.00 0.00 0.00 82 1018.4
20260901214136 20 99 1.6 3.2 0.00 0.00 0.00 81 1018.4
20260901213631 21 117 1.6 4.8 0.00 0.00 0.00 80 1018.1
20260901213126 21 110 3.2 3.2 0.00 0.00 0.00 80 1018.1
20260901212626 21 103 1.6 3.2 0.00 0.00 0.00 80 1018.1
20260901212122 21 111 3.2 3.2 0.00 0.00 0.00 79 1018.1
20260901211616 21 101 3.2 3.2 0.00 0.00 0.00 78 1018.2
20260901211113 21 109 0.0 3.2 0.00 0.00 0.00 76 1017.8
20260901210608 21 98 3.2 3.2 0.00 0.00 0.00 75 1018.1
20260901210104 21 97 1.6 4.8 0.00 0.00 0.00 74 1017.8
20260901205559 21 95 3.2 4.8 0.00 0.00 0.00 74 1017.9
20260901205054 21 96 3.2 4.8 0.00 0.00 0.00 73 1017.8
20260901204550 22 96 1.6 3.2 0.00 0.00 0.00 72 1017.8
20260901204045 22 97 1.6 3.2 0.00 0.00 0.00 70 1017.8
20260901203539 22 102 0.0 3.2 0.00 0.00 0.00 69 1017.8
20260901203034 22 126 1.6 4.8 0.00 0.00 0.00 63 1017.9
20260901202529 22 209 4.8 4.8 0.00 0.00 0.00 61 1017.6
20260901202025 22 110 0.0 3.2 0.00 0.00 0.00 60 1017.7
20260901201520 22 110 0.0 3.2 0.00 0.00 0.00 61 1017.6
20260901201014 22 113 3.2 3.2 0.00 0.00 0.00 59 1017.6
20260901200508 22 113 0.0 3.2 0.00 0.00 0.00 60 1017.5
20260901200008 22 113 1.6 3.2 0.00 0.00 0.00 59 1017.6
20260901195506 23 140 3.2 3.2 0.00 0.00 0.00 57 1017.5
20260901195006 23 130 0.0 4.8 0.00 0.00 0.00 58 1017.6
20260901194501 23 206 4.8 4.8 0.00 0.00 0.00 58 1017.7
20260901193957 23 212 4.8 8.0 0.00 0.00 0.00 58 1017.7
20260901193456 22 141 3.2 3.2 0.00 0.00 0.00 58 1017.8
20260901192956 22 141 0.0 3.2 0.00 0.00 0.00 59 1017.7
20260901192452 22 141 0.0 3.2 0.00 0.00 0.00 61 1017.9
20260901191948 22 141 0.0 3.2 0.00 0.00 0.00 61 1017.8
20260901191443 22 141 0.0 0.0 0.00 0.00 0.00 60 1017.8
20260901190939 22 141 1.6 3.2 0.00 0.00 0.00 60 1017.9
20260901190434 22 142 0.0 3.2 0.00 0.00 0.00 61 1017.8
20260901185932 22 144 3.2 3.2 0.00 0.00 0.00 61 1018.0
20260901185432 22 130 3.2 3.2 0.00 0.00 0.00 62 1018.0
20260901184926 22 124 0.0 0.0 0.00 0.00 0.00 63 1018.0
20260901184422 22 124 0.0 0.0 0.00 0.00 0.00 63 1018.0
20260901183917 22 124 0.0 0.0 0.00 0.00 0.00 62 1017.9
20260901183416 22 124 0.0 3.2 0.00 0.00 0.00 62 1018.0
20260901182912 22 125 0.0 0.0 0.00 0.00 0.00 62 1018.0
20260901182407 21 125 0.0 0.0 0.00 0.00 0.00 63 1018.0
20260901181902 22 127 3.2 3.2 0.00 0.00 0.00 61 1017.9
20260901181357 22 122 3.2 3.2 0.00 0.00 0.00 60 1018.0
20260901180856 22 115 0.0 0.0 0.00 0.00 0.00 61 1017.8
20260901180355 22 190 3.2 4.8 0.00 0.00 0.00 60 1017.8
20260901175853 22 71 0.0 3.2 0.00 0.00 0.00 59 1017.7
20260901175348 21 69 0.0 3.2 0.00 0.00 0.00 60 1017.9
20260901174843 22 68 0.0 0.0 0.00 0.00 0.00 62 1017.8
20260901174339 22 69 0.0 3.2 0.00 0.00 0.00 62 1017.7
20260901173835 22 67 0.0 3.2 0.00 0.00 0.00 61 1017.8
20260901173329 22 67 3.2 3.2 0.00 0.00 0.00 59 1017.8
20260901172826 22 67 0.0 3.2 0.00 0.00 0.00 58 1017.6
20260901172325 22 66 0.0 3.2 0.00 0.00 0.00 60 1017.6
20260901171823 22 67 0.0 0.0 0.00 0.00 0.00 60 1017.7
20260901171322 22 66 0.0 3.2 0.00 0.00 0.00 59 1017.6
20260901170816 22 39 0.0 3.2 0.00 0.00 0.00 58 1017.9
20260901170311 22 16 0.0 3.2 0.00 0.00 0.00 58 1017.9
20260901165810 22 89 0.0 0.0 0.00 0.00 0.00 58 1017.9
20260901165306 22 89 0.0 3.2 0.00 0.00 0.00 58 1017.8
20260901164800 22 17 3.2 3.2 0.00 0.00 0.00 57 1017.9
20260901164255 21 78 0.0 0.0 0.00 0.00 0.00 58 1017.8
20260901163750 22 78 0.0 0.0 0.00 0.00 0.00 60 1017.9
20260901163245 22 67 1.6 3.2 0.00 0.00 0.00 59 1017.9
20260901162740 21 43 0.0 3.2 0.00 0.00 0.00 62 1018.0
20260901162239 21 84 3.2 4.8 0.00 0.00 0.00 61 1018.0
20260901161738 21 69 0.0 3.2 0.00 0.00 0.00 64 1018.2
20260901161233 20 41 0.0 3.2 0.00 0.00 0.00 63 1018.1
20260901160729 20 57 0.0 0.0 0.00 0.00 0.00 66 1018.3
20260901160225 20 57 0.0 3.2 0.00 0.00 0.00 65 1018.3
20260901155723 20 55 0.0 3.2 0.00 0.00 0.00 66 1018.3
20260901155219 20 54 0.0 0.0 0.00 0.00 0.00 66 1018.5
20260901154714 20 54 0.0 3.2 0.00 0.00 0.00 65 1018.3
20260901154209 20 54 0.0 0.0 0.00 0.00 0.00 67 1018.1
20260901153704 20 61 1.6 3.2 0.00 0.00 0.00 66 1018.2
20260901153203 20 69 1.6 3.2 0.00 0.00 0.00 66 1018.2
20260901152658 20 81 3.2 4.8 0.00 0.00 0.00 68 1018.2
20260901152156 19 72 0.0 3.2 0.00 0.00 0.00 67 1018.3
20260901151652 19 9 1.6 3.2 0.00 0.00 0.00 68 1018.3
20260901151152 18 39 3.2 3.2 0.00 0.00 0.00 71 1018.1
20260901150652 18 78 0.0 0.0 0.00 0.00 0.00 72 1018.2
20260901150150 18 55 0.0 3.2 0.00 0.00 0.00 72 1018.1
20260901145648 18 93 0.0 3.2 0.00 0.00 0.00 73 1017.9
20260901145148 18 78 1.6 3.2 0.00 0.00 0.00 72 1018.0
20260901144643 18 121 3.2 3.2 0.00 0.00 0.00 72 1017.9
20260901144138 18 52 0.0 0.0 0.00 0.00 0.00 71 1018.0
20260901143633 18 54 0.0 3.2 0.00 0.00 0.00 72 1018.1
20260901143130 18 70 0.0 0.0 0.00 0.00 0.00 73 1018.1
20260901142626 17 79 0.0 4.8 0.00 0.00 0.00 73 1018.1
20260901142125 17 103 0.0 3.2 0.00 0.00 0.00 74 1018.1
20260901141620 17 26 0.0 3.2 0.00 0.00 0.00 74 1018.3
20260901141114 17 79 3.2 3.2 0.00 0.00 0.00 77 1018.4
20260901140613 17 38 0.0 3.2 0.00 0.00 0.00 79 1018.3
20260901140112 16 24 1.6 3.2 0.00 0.00 0.00 79 1018.6
20260901135612 16 340 1.6 3.2 0.00 0.00 0.00 83 1018.5
20260901135107 16 346 0.0 3.2 0.00 0.00 0.00 85 1018.4
20260901134603 15 346 1.6 3.2 0.00 0.00 0.00 86 1018.4
20260901134058 15 346 3.2 3.2 0.00 0.00 0.00 85 1018.4
20260901133557 15 351 3.2 3.2 0.00 0.00 0.00 85 1018.5
20260901133056 15 351 1.6 3.2 0.00 0.00 0.00 84 1018.4
20260901132551 15 352 0.0 3.2 0.00 0.00 0.00 83 1018.6
20260901132050 15 352 3.2 3.2 0.00 0.00 0.00 83 1018.7
20260901131544 15 352 3.2 3.2 0.00 0.00 0.00 82 1018.7
20260901131035 15 352 3.2 3.2 0.00 0.00 0.00 82 1018.8
20260901130534 15 352 1.6 4.8 0.00 0.00 0.00 83 1018.5
20260901130032 15 352 3.2 3.2 0.00 0.00 0.00 83 1018.8
20260901125526 15 353 1.6 3.2 0.00 0.00 0.00 84 1018.5
20260901125021 14 353 3.2 3.2 0.00 0.00 0.00 86 1018.7
20260901124516 14 353 1.6 3.2 0.00 0.00 0.00 86 1018.8
20260901124016 14 352 3.2 3.2 0.00 0.00 0.00 88 1018.8
20260901123510 14 352 3.2 3.2 0.00 0.00 0.00 87 1018.8
20260901123009 14 351 1.6 3.2 0.00 0.00 0.00 87 1018.7
20260901122503 13 352 3.2 3.2 0.00 0.00 0.00 89 1018.8
20260901122002 13 351 3.2 3.2 0.00 0.00 0.00 89 1018.8
20260901121457 13 352 0.0 3.2 0.00 0.00 0.00 91 1018.7
20260901120952 13 351 3.2 3.2 0.00 0.00 0.00 92 1018.5
20260901120452 13 351 3.2 3.2 0.00 0.00 0.00 93 1018.6
20260901115948 13 350 1.6 4.8 0.00 0.00 0.00 94 1018.7
20260901115443 13 359 3.2 3.2 0.00 0.00 0.00 95 1018.6
20260901114940 13 354 3.2 3.2 0.00 0.00 0.00 96 1018.4
20260901114436 13 356 3.2 3.2 0.00 0.00 0.00 96 1018.4
20260901113933 13 356 3.2 3.2 0.00 0.00 0.00 96 1018.5
20260901113432 13 1 3.2 4.8 0.00 0.00 0.00 96 1018.4
20260901112928 13 6 3.2 3.2 0.00 0.00 0.00 97 1018.4
20260901112423 13 8 3.2 3.2 0.00 0.00 0.00 97 1018.3
20260901111917 12 12 3.2 3.2 0.00 0.00 0.00 97 1018.4
20260901111415 12 8 3.2 3.2 0.00 0.00 0.00 97 1018.4
20260901110914 12 11 0.0 3.2 0.00 0.00 0.00 98 1018.3
20260901110410 12 10 1.6 3.2 0.00 0.00 0.00 98 1018.2
20260901105906 12 13 0.0 3.2 0.00 0.00 0.00 98 1018.1
20260901105401 12 9 1.6 3.2 0.00 0.00 0.00 98 1017.8
20260901104858 12 357 3.2 4.8 0.00 0.00 0.00 98 1018.1
20260901104352 12 2 3.2 3.2 0.00 0.00 0.00 98 1018.0
20260901103849 12 2 0.0 3.2 0.00 0.00 0.00 98 1018.0
20260901103348 12 14 3.2 3.2 0.00 0.00 0.00 98 1018.0
20260901102843 12 16 1.6 3.2 0.00 0.00 0.00 98 1017.9
20260901102337 12 17 0.0 3.2 0.00 0.00 0.00 98 1017.8
20260901101833 12 17 0.0 3.2 0.00 0.00 0.00 98 1017.7
20260901101333 12 16 0.0 3.2 0.00 0.00 0.00 98 1017.7
20260901100827 12 16 1.6 3.2 0.00 0.00 0.00 98 1017.7
20260901100321 12 16 1.6 3.2 0.00 0.00 0.00 98 1017.8
20260901095820 12 16 1.6 3.2 0.00 0.00 0.00 98 1017.6
20260901095318 12 15 0.0 0.0 0.00 0.00 0.00 98 1017.8
20260901094812 12 15 1.6 3.2 0.00 0.00 0.00 98 1017.8
20260901094307 12 15 1.6 3.2 0.00 0.00 0.00 98 1017.9
20260901093802 12 15 0.0 3.2 0.00 0.00 0.00 98 1017.8
20260901093301 12 15 0.0 3.2 0.00 0.00 0.00 98 1017.9
20260901092757 12 15 0.0 3.2 0.00 0.00 0.00 98 1017.7
20260901092253 12 14 3.2 3.2 0.00 0.00 0.00 98 1017.8
20260901091748 12 14 3.2 3.2 0.00 0.00 0.00 98 1017.9
20260901091243 12 17 3.2 3.2 0.00 0.00 0.00 98 1017.8
20260901090738 12 22 3.2 3.2 0.00 0.00 0.00 98 1017.9
20260901090233 12 21 3.2 3.2 0.00 0.00 0.00 98 1017.9
20260901085729 11 39 3.2 3.2 0.00 0.00 0.00 98 1017.7
20260901085224 11 39 3.2 3.2 0.00 0.00 0.00 97 1017.8
20260901084720 12 54 3.2 3.2 0.00 0.00 0.00 97 1017.8
20260901084211 12 58 3.2 3.2 0.00 0.00 0.00 97 1017.6
20260901083711 12 59 1.6 3.2 0.00 0.00 0.00 97 1017.9
20260901083210 12 61 0.0 0.0 0.00 0.00 0.00 96 1018.0
20260901082709 12 60 0.0 0.0 0.00 0.00 0.00 97 1017.8
20260901082205 12 60 0.0 3.2 0.00 0.00 0.00 97 1017.7
20260901081700 12 59 0.0 3.2 0.00 0.00 0.00 97 1017.8
20260901081159 12 58 3.2 3.2 0.00 0.00 0.00 97 1018.0
20260901080654 12 59 1.6 3.2 0.00 0.00 0.00 97 1017.9
20260901080153 12 59 1.6 3.2 0.00 0.00 0.00 97 1018.0
20260901075648 12 59 3.2 3.2 0.00 0.00 0.00 97 1017.7
20260901075143 12 60 0.0 3.2 0.00 0.00 0.00 96 1017.8
20260901074643 12 60 1.6 3.2 0.00 0.00 0.00 96 1017.7
20260901074138 13 60 0.0 3.2 0.00 0.00 0.00 95 1017.6
20260901073634 13 59 0.0 0.0 0.00 0.00 0.00 95 1017.8
20260901073130 13 59 1.6 3.2 0.00 0.00 0.00 96 1017.7
20260901072625 13 59 1.6 3.2 0.00 0.00 0.00 96 1017.8
20260901072119 13 59 3.2 3.2 0.00 0.00 0.00 96 1018.0
20260901071613 13 59 3.2 3.2 0.00 0.00 0.00 97 1018.0
20260901071112 12 59 3.2 3.2 0.00 0.00 0.00 97 1018.1
20260901070607 12 59 3.2 3.2 0.00 0.00 0.00 96 1018.0
20260901065556 13 59 3.2 3.2 0.00 0.00 0.00 96 1018.1
20260901065050 13 59 3.2 3.2 0.00 0.00 0.00 96 1018.1
20260901064548 13 59 3.2 3.2 0.00 0.00 0.00 96 1018.0
20260901064044 13 60 3.2 3.2 0.00 0.00 0.00 97 1017.9
20260901063540 13 60 3.2 3.2 0.00 0.00 0.00 96 1018.0
20260901063036 13 60 3.2 3.2 0.00 0.00 0.00 96 1018.1
20260901062532 13 60 3.2 3.2 0.00 0.00 0.00 96 1018.0
20260901062028 13 60 1.6 3.2 0.00 0.00 0.00 97 1018.1
20260901061524 13 60 3.2 3.2 0.00 0.00 0.00 97 1018.1
20260901061024 13 60 0.0 3.2 0.00 0.00 0.00 97 1018.1
20260901060518 13 60 3.2 3.2 0.00 0.00 0.00 97 1018.3
20260901060013 13 60 1.6 3.2 0.00 0.00 0.00 97 1018.3
20260901055504 13 60 3.2 3.2 0.00 0.00 0.00 97 1018.1
20260901055001 13 60 0.0 3.2 0.00 0.00 0.00 97 1018.2
20260901054457 12 61 0.0 3.2 0.00 0.00 0.00 97 1018.2
20260901053953 12 60 3.2 3.2 0.00 0.00 0.00 97 1018.2
20260901053448 13 60 3.2 3.2 0.00 0.00 0.00 97 1018.4
20260901052944 13 61 1.6 3.2 0.00 0.00 0.00 97 1018.3
20260901052439 13 61 1.6 3.2 0.00 0.00 0.00 97 1018.6
20260901051938 13 61 3.2 3.2 0.00 0.00 0.00 97 1018.2
20260901051433 13 61 1.6 3.2 0.00 0.00 0.00 96 1018.1
20260901050927 12 61 0.0 3.2 0.00 0.00 0.00 96 1018.2
20260901050423 13 61 1.6 3.2 0.00 0.00 0.00 95 1018.1
20260901045923 13 61 0.0 3.2 0.00 0.00 0.00 96 1018.3
20260901045418 13 61 3.2 3.2 0.00 0.00 0.00 96 1018.2
20260901044913 13 61 1.6 3.2 0.00 0.00 0.00 96 1018.3
20260901044409 12 61 3.2 3.2 0.00 0.00 0.00 96 1018.4
20260901043904 12 136 3.2 3.2 0.00 0.00 0.00 96 1018.3
20260901043400 12 136 1.6 3.2 0.00 0.00 0.00 95 1018.2
20260901042854 13 136 3.2 3.2 0.00 0.00 0.00 94 1018.1
20260901042348 13 136 0.0 0.0 0.00 0.00 0.00 94 1018.0
20260901041844 13 136 0.0 0.0 0.00 0.00 0.00 95 1018.0
20260901041339 13 136 0.0 3.2 0.00 0.00 0.00 94 1018.0
20260901040833 13 136 0.0 3.2 0.00 0.00 0.00 95 1017.9
20260901040332 13 136 0.0 3.2 0.00 0.00 0.00 95 1017.9
20260901035826 13 136 1.6 3.2 0.00 0.00 0.00 95 1018.0
20260901035325 13 136 0.0 0.0 0.00 0.00 0.00 95 1017.8
20260901034824 13 136 1.6 3.2 0.00 0.00 0.00 94 1017.9
20260901034319 13 139 3.2 3.2 0.00 0.00 0.00 94 1018.1
20260901033814 13 136 0.0 0.0 0.00 0.00 0.00 94 1018.0
20260901033313 13 136 1.6 3.2 0.00 0.00 0.00 94 1018.1
20260901032812 13 136 0.0 3.2 0.00 0.00 0.00 94 1018.0
20260901032311 13 136 0.0 3.2 0.00 0.00 0.00 94 1018.0
20260901031806 13 136 0.0 0.0 0.00 0.00 0.00 93 1018.1
20260901031302 14 136 0.0 0.0 0.00 0.00 0.00 93 1018.0
20260901030802 14 136 0.0 0.0 0.00 0.00 0.00 92 1018.0
20260901030257 14 136 0.0 3.2 0.00 0.00 0.00 92 1018.0
20260901025756 14 136 0.0 3.2 0.00 0.00 0.00 92 1018.1
20260901025251 14 136 0.0 0.0 0.00 0.00 0.00 93 1018.0
20260901024746 14 136 0.0 3.2 0.00 0.00 0.00 93 1018.1
20260901024245 14 147 0.0 3.2 0.00 0.00 0.00 92 1018.2
20260901023743 15 135 3.2 3.2 0.00 0.00 0.00 91 1018.1
20260901023239 15 139 0.0 0.0 0.00 0.00 0.00 91 1018.3
20260901022734 15 139 0.0 3.2 0.00 0.00 0.00 91 1018.1
20260901022229 15 139 0.0 3.2 0.00 0.00 0.00 90 1018.1
20260901021725 15 136 0.0 0.0 0.00 0.00 0.00 90 1018.2
20260901021220 15 139 0.0 0.0 0.00 0.00 0.00 90 1018.0
20260901020715 15 139 1.6 3.2 0.00 0.00 0.00 88 1018.2
20260901020211 16 139 0.0 3.2 0.00 0.00 0.00 87 1018.1
20260901015706 16 136 0.0 3.2 0.00 0.00 0.00 86 1018.2
20260901015201 16 136 0.0 0.0 0.00 0.00 0.00 86 1018.3